Location: Brown Observing Site
(43.4354°N, 116.3366°W)
Time: 12:36:58
(UTC-07:00)

Envisat - Pass Details

Date: 01 November 2019
Orbit: 764 x 766 km, 98.1° (Epoch: 17 November)

Event Time Altitude Azimuth Distance (km) Brightness Sun altitude
Rises 19:04:38 0° 144° (SE) 3,219 6.0 -5.7°
Reaches altitude 10° 19:07:02 10° 137° (SE) 2,296 5.2 -6.1°
Maximum altitude 19:11:44 40° 69° (ENE) 1,114 3.4 -6.9°
Drops below altitude 10° 19:16:28 10° 1° (N) 2,310 5.4 -7.8°
Sets 19:18:53 0° 354° (N) 3,241 6.2 -8.2°
